DW8219 Weather Reports


Display with metric or nautical units.
time (UTC)temp
F
wind
direction
speed
MPH
gust
MPH
rain 1hr
in
rain 24hr
in
rain mn
in
humidity
%
barometer
mb
20240622215904 83 39 1.0 6.0 0.00 0.23 0.23 65 1012.7
20240622215404 83 17 1.0 2.0 0.00 0.23 0.23 66 1012.0
20240622214904 82 132 0.0 3.0 0.00 0.23 0.23 67 1011.6
20240622214404 82 150 2.0 6.0 0.00 0.23 0.23 66 1011.6
20240622213904 81 173 6.0 10.0 0.00 0.23 0.23 66 1011.5
20240622212904 82 177 7.0 17.0 0.00 0.23 0.23 65 1011.4
20240622212404 82 176 9.0 20.0 0.00 0.23 0.23 64 1011.4
20240622211404 84 165 8.0 18.0 0.00 0.23 0.23 66 1011.2
20240622210904 84 153 3.0 14.0 0.00 0.23 0.23 69 1011.2
20240622210404 84 138 7.0 15.0 0.00 0.23 0.23 70 1011.3
20240622205404 85 143 6.0 12.0 0.00 0.23 0.23 72 1011.6
20240622204904 85 149 3.0 12.0 0.00 0.23 0.23 73 1011.7
20240622204405 85 146 5.0 13.0 0.00 0.23 0.23 72 1011.8
20240622203904 85 175 6.0 15.0 0.00 0.23 0.23 71 1011.8
20240622203404 85 174 6.0 13.0 0.00 0.23 0.23 70 1011.8
20240622202904 86 179 5.0 15.0 0.00 0.23 0.23 70 1011.6
20240622202404 86 185 9.0 22.0 0.00 0.23 0.23 67 1011.7
20240622201906 87 186 6.0 21.0 0.00 0.23 0.23 67 1011.8
20240622201404 88 174 9.0 20.0 0.00 0.23 0.23 67 1011.8
20240622200905 89 169 8.0 20.0 0.00 0.23 0.23 66 1012.0
20240622200405 90 177 6.0 12.0 0.00 0.23 0.23 68 1012.1
20240622195906 90 130 5.0 10.0 0.00 0.23 0.23 68 1012.2
20240622195405 90 158 3.0 8.0 0.00 0.23 0.23 70 1012.1
20240622194905 89 118 3.0 8.0 0.00 0.23 0.23 71 1012.1
20240622194404 89 139 2.0 8.0 0.00 0.23 0.23 69 1012.1
20240622193904 89 136 1.0 8.0 0.00 0.23 0.23 68 1012.2
20240622193404 89 131 2.0 9.0 0.00 0.23 0.23 70 1012.2
20240622192905 89 93 1.0 9.0 0.00 0.23 0.23 67 1012.1
20240622192405 89 124 1.0 10.0 0.00 0.23 0.23 66 1012.1
20240622191904 89 146 5.0 12.0 0.00 0.23 0.23 67 1012.1
20240622191405 88 125 3.0 12.0 0.00 0.23 0.23 68 1012.1
20240622190405 88 117 1.0 8.0 0.00 0.23 0.23 66 1012.3
20240622185905 87 134 3.0 10.0 0.02 0.23 0.23 66 1012.3
20240622185404 87 154 5.0 13.0 0.10 0.23 0.23 70 1012.3
20240622184904 87 154 5.0 12.0 0.22 0.23 0.23 72 1012.4
20240622184405 86 146 5.0 7.0 0.23 0.23 0.23 74 1012.5
20240622183406 85 130 0.0 0.0 0.23 0.23 0.23 76 1012.7
20240622182904 85 116 0.0 0.0 0.23 0.23 0.23 76 1012.7
20240622181405 84 138 0.0 1.0 0.23 0.23 0.23 77 1013.0
20240622180905 84 123 2.0 9.0 0.23 0.23 0.23 73 1013.1
20240622180405 85 194 7.0 20.0 0.23 0.23 0.23 68 1013.3
20240622175903 88 182 12.0 26.0 0.21 0.21 0.21 63 1013.9
20240622175403 93 245 5.0 20.0 0.13 0.13 0.13 61 1013.3
20240622174904 94 264 1.0 3.0 0.01 0.01 0.01 55 1013.2
20240622174403 94 314 1.0 10.0 0.00 0.00 0.00 53 1012.8
20240622173405 96 262 2.0 3.0 0.00 0.00 0.00 50 1012.7
20240622172905 96 212 3.0 9.0 0.00 0.00 0.00 51 1012.8
20240622171905 97 233 1.0 3.0 0.00 0.00 0.00 48 1013.0
20240622171404 97 295 2.0 8.0 0.00 0.00 0.00 48 1013.0
20240622170904 98 261 6.0 12.0 0.00 0.00 0.00 49 1013.1
20240622170404 98 241 2.0 9.0 0.00 0.00 0.00 50 1013.2
20240622165404 97 250 5.0 9.0 0.00 0.00 0.00 50 1013.3
20240622164904 97 212 5.0 10.0 0.00 0.00 0.00 52 1013.3
20240622164404 97 271 1.0 6.0 0.00 0.00 0.00 52 1013.3
20240622163904 97 326 1.0 3.0 0.00 0.00 0.00 54 1013.4
20240622162906 96 210 2.0 10.0 0.00 0.00 0.00 54 1013.7
20240622162404 96 241 2.0 3.0 0.00 0.00 0.00 56 1013.8
20240622160904 95 264 1.0 6.0 0.00 0.00 0.00 57 1014.0
20240622155904 95 213 1.0 3.0 0.00 0.00 0.00 55 1014.1
20240622155406 95 233 2.0 7.0 0.00 0.00 0.00 55 1014.2
20240622154904 94 266 2.0 9.0 0.00 0.00 0.00 57 1014.2
20240622154404 94 174 1.0 5.0 0.00 0.00 0.00 59 1014.2
20240622153906 93 249 0.0 3.0 0.00 0.00 0.00 59 1014.3
20240622152406 91 142 1.0 2.0 0.00 0.00 0.00 60 1014.5
20240622151905 91 158 1.0 3.0 0.00 0.00 0.00 60 1014.6
20240622151405 91 252 3.0 7.0 0.00 0.00 0.00 62 1014.6
20240622145905 89 288 0.0 2.0 0.00 0.00 0.00 64 1014.6
20240622145404 89 237 1.0 3.0 0.00 0.00 0.00 65 1014.6
20240622144904 88 315 0.0 0.0 0.00 0.00 0.00 65 1014.6
20240622144404 88 348 0.0 0.0 0.00 0.00 0.00 66 1014.6
20240622143905 87 341 1.0 2.0 0.00 0.00 0.00 68 1014.8
20240622143405 87 297 0.0 2.0 0.00 0.00 0.00 68 1014.8
20240622142904 86 251 0.0 2.0 0.00 0.00 0.00 68 1014.9
20240622142404 86 239 0.0 3.0 0.00 0.00 0.00 67 1014.9
20240622141905 86 178 2.0 8.0 0.00 0.00 0.00 68 1015.1
20240622141404 85 249 3.0 7.0 0.00 0.00 0.00 69 1015.1
20240622140404 85 236 3.0 3.0 0.00 0.00 0.00 70 1015.3
20240622135905 84 263 2.0 8.0 0.00 0.00 0.00 70 1015.4
20240622133904 84 222 0.0 7.0 0.00 0.00 0.00 72 1015.5
20240622132905 83 230 2.0 5.0 0.00 0.00 0.00 72 1015.5
20240622132405 83 237 2.0 5.0 0.00 0.00 0.00 72 1015.6
20240622131405 83 242 2.0 6.0 0.00 0.00 0.00 73 1015.5
20240622130904 83 274 2.0 7.0 0.00 0.00 0.00 74 1015.5
20240622130405 83 273 1.0 6.0 0.00 0.00 0.00 75 1015.6
20240622125905 82 255 2.0 3.0 0.00 0.00 0.00 75 1015.6
20240622125404 82 169 1.0 3.0 0.00 0.00 0.00 75 1015.6
20240622124906 82 230 1.0 3.0 0.00 0.00 0.00 76 1015.6
20240622123904 82 173 1.0 3.0 0.00 0.00 0.00 76 1015.7
20240622123404 82 265 0.0 2.0 0.00 0.00 0.00 76 1015.8
20240622122905 81 193 2.0 3.0 0.00 0.00 0.00 76 1015.7
20240622122405 81 237 2.0 5.0 0.00 0.00 0.00 77 1015.7
20240622121904 81 233 1.0 3.0 0.00 0.00 0.00 78 1015.7
20240622121405 81 218 2.0 3.0 0.00 0.00 0.00 78 1015.8
20240622120905 81 237 1.0 3.0 0.00 0.00 0.00 79 1015.9
20240622120404 81 227 1.0 3.0 0.00 0.00 0.00 80 1016.0
20240622115904 80 238 1.0 3.0 0.00 0.00 0.00 80 1015.9
20240622115404 80 281 1.0 3.0 0.00 0.00 0.00 80 1016.0
20240622114905 80 218 1.0 5.0 0.00 0.00 0.00 80 1016.1
20240622113903 79 192 2.0 5.0 0.00 0.00 0.00 82 1016.1
20240622113403 79 192 0.0 0.0 0.00 0.00 0.00 83 1016.0
20240622112904 78 191 0.0 0.0 0.00 0.00 0.00 84 1016.0
20240622111904 78 191 0.0 0.0 0.00 0.00 0.00 84 1016.1
20240622111403 77 191 0.0 0.0 0.00 0.00 0.00 85 1016.2
20240622110905 77 191 0.0 0.0 0.00 0.00 0.00 85 1016.1
20240622110404 77 190 0.0 0.0 0.00 0.00 0.00 86 1016.2
20240622105405 77 190 0.0 0.0 0.00 0.00 0.00 86 1016.2
20240622104903 76 190 0.0 0.0 0.00 0.00 0.00 85 1016.3
20240622104404 76 190 0.0 0.0 0.00 0.00 0.00 85 1016.4
20240622103905 76 189 0.0 0.0 0.00 0.00 0.00 85 1016.1
20240622103403 76 188 0.0 0.0 0.00 0.00 0.00 85 1016.0
20240622101403 76 188 0.0 0.0 0.00 0.00 0.00 84 1016.1
20240622100903 76 188 0.0 0.0 0.00 0.00 0.00 84 1016.1
20240622100403 76 188 0.0 0.0 0.00 0.00 0.00 84 1016.1
20240622095405 76 188 0.0 0.0 0.00 0.00 0.00 84 1016.1
20240622094904 77 188 0.0 0.0 0.00 0.00 0.00 84 1016.1
20240622094403 77 188 0.0 0.0 0.00 0.00 0.00 84 1016.0
20240622093903 77 188 0.0 0.0 0.00 0.00 0.00 84 1016.1
20240622093404 77 188 0.0 0.0 0.00 0.00 0.00 84 1015.9
20240622092903 77 188 0.0 0.0 0.00 0.00 0.00 84 1016.1
20240622092404 77 188 0.0 0.0 0.00 0.00 0.00 83 1016.0
20240622091905 77 188 0.0 0.0 0.00 0.00 0.00 84 1016.0
20240622091404 77 188 0.0 0.0 0.00 0.00 0.00 83 1016.1
20240622090904 77 188 0.0 0.0 0.00 0.00 0.00 84 1016.1
20240622090403 77 188 0.0 0.0 0.00 0.00 0.00 84 1016.1
20240622085904 77 188 0.0 0.0 0.00 0.00 0.00 84 1016.0
20240622085404 77 188 0.0 0.0 0.00 0.00 0.00 84 1016.1
20240622084904 77 186 0.0 0.0 0.00 0.00 0.00 84 1016.1
20240622083904 77 186 0.0 0.0 0.00 0.00 0.00 84 1016.1
20240622083404 77 195 0.0 0.0 0.00 0.00 0.00 84 1016.1
20240622082906 77 195 0.0 0.0 0.00 0.00 0.00 84 1016.1
20240622082406 77 200 0.0 0.0 0.00 0.00 0.00 84 1016.1
20240622081904 77 207 0.0 0.0 0.00 0.00 0.00 84 1016.2
20240622081404 77 207 0.0 0.0 0.00 0.00 0.00 84 1016.0
20240622080905 77 218 0.0 0.0 0.00 0.00 0.00 84 1016.1
20240622080404 77 218 0.0 0.0 0.00 0.00 0.00 84 1016.1
20240622075905 77 219 0.0 0.0 0.00 0.00 0.00 84 1016.1
20240622075404 77 218 0.0 0.0 0.00 0.00 0.00 84 1016.3
20240622074905 77 218 0.0 0.0 0.00 0.00 0.00 84 1016.4
20240622073904 77 218 0.0 0.0 0.00 0.00 0.00 83 1016.4
20240622073406 77 219 0.0 0.0 0.00 0.00 0.00 83 1016.4
20240622072905 77 218 0.0 0.0 0.00 0.00 0.00 83 1016.4
20240622072405 77 218 0.0 0.0 0.00 0.00 0.00 83 1016.4
20240622071906 77 218 0.0 0.0 0.00 0.00 0.00 83 1016.5
20240622071404 77 234 0.0 0.0 0.00 0.00 0.00 83 1016.4
20240622070904 77 234 0.0 0.0 0.00 0.00 0.00 83 1016.4
20240622065905 77 240 0.0 0.0 0.00 0.00 0.00 83 1016.6
20240622065404 77 240 0.0 0.0 0.00 0.00 0.00 83 1016.6
20240622063905 77 242 0.0 0.0 0.00 0.00 0.00 83 1016.7
20240622063405 77 242 0.0 0.0 0.00 0.00 0.00 83 1016.8
20240622061904 77 242 0.0 0.0 0.00 0.00 0.00 83 1016.7
20240622061404 77 242 0.0 0.0 0.00 0.00 0.00 83 1016.7
20240622060904 77 243 0.0 0.0 0.00 0.00 0.00 83 1016.8
20240622060404 77 210 0.0 0.0 0.00 0.00 0.00 83 1016.8
20240622055905 77 210 0.0 0.0 0.00 0.00 0.00 83 1016.8
20240622055404 77 209 0.0 0.0 0.00 0.00 0.00 83 1016.8
20240622054905 77 209 0.0 0.0 0.00 0.00 0.00 83 1016.8
20240622054403 77 209 0.0 0.0 0.00 0.00 0.00 83 1016.8
20240622053903 77 209 0.0 0.0 0.00 0.00 0.00 83 1016.8
20240622053405 77 152 0.0 0.0 0.00 0.00 0.00 83 1016.9
20240622052404 77 127 0.0 0.0 0.00 0.00 0.00 83 1016.9
20240622051904 77 127 0.0 0.0 0.00 0.00 0.00 83 1017.0
20240622051405 77 127 0.0 0.0 0.00 0.00 0.00 83 1017.0
20240622050904 77 126 0.0 0.0 0.00 0.00 0.00 83 1017.0
20240622045904 77 114 0.0 0.0 0.00 0.00 0.00 83 1017.1
20240622045404 77 110 0.0 0.0 0.00 0.00 0.00 83 1017.1
20240622044904 77 355 0.0 0.0 0.00 0.00 0.00 83 1017.1
20240622044405 77 355 0.0 0.0 0.00 0.00 0.00 82 1017.2
20240622043906 77 355 0.0 0.0 0.00 0.00 0.00 82 1017.4
20240622043404 77 355 0.0 0.0 0.00 0.00 0.00 82 1017.5
20240622042905 77 355 0.0 0.0 0.00 0.00 0.00 82 1017.6
20240622042404 77 355 0.0 0.0 0.00 0.00 0.00 82 1017.7
20240622041404 77 310 0.0 0.0 0.00 0.00 0.00 83 1017.8
20240622040904 77 19 0.0 1.0 0.00 0.00 0.00 83 1017.9
20240622035904 78 26 0.0 3.0 0.00 0.00 0.00 83 1018.2
20240622034904 78 80 0.0 3.0 0.00 0.00 0.00 83 1018.3
20240622034404 78 314 1.0 13.0 0.00 0.00 0.00 83 1018.5
20240622033905 78 324 4.0 14.0 0.00 0.00 0.00 83 1018.4
20240622033404 78 304 2.0 14.0 0.00 0.00 0.00 82 1018.4
20240622032905 78 298 2.0 5.0 0.00 0.00 0.00 80 1018.1
20240622032405 78 10 0.0 0.0 0.00 0.00 0.00 80 1017.9
20240622031904 78 55 0.0 0.0 0.00 0.00 0.00 80 1017.8
20240622030906 78 55 0.0 0.0 0.00 0.00 0.00 80 1017.6
20240622030404 78 55 0.0 0.0 0.00 0.00 0.00 80 1017.5
20240622025904 78 55 0.0 0.0 0.00 0.00 0.00 80 1017.5
20240622025406 78 56 0.0 0.0 0.00 0.00 0.00 80 1017.5
20240622024905 78 54 0.0 0.0 0.00 0.00 0.00 80 1017.6
20240622024404 79 54 0.0 0.0 0.00 0.00 0.00 80 1017.6
20240622023906 79 57 0.0 0.0 0.00 0.00 0.00 80 1017.6
20240622023405 79 86 0.0 0.0 0.00 0.00 0.00 80 1017.6
20240622022904 79 95 0.0 0.0 0.00 0.00 0.00 80 1017.5
20240622022405 79 94 0.0 0.0 0.00 0.00 0.00 80 1017.6
20240622021405 79 93 0.0 1.0 0.00 0.00 0.00 80 1017.5
20240622020906 79 62 0.0 1.0 0.00 0.00 0.00 79 1017.5
20240622020406 79 61 0.0 1.0 0.00 0.00 0.00 79 1017.5
20240622015905 79 75 0.0 3.0 0.00 0.00 0.00 79 1017.6
20240622015404 79 99 1.0 3.0 0.00 0.00 0.00 79 1017.7
20240622014904 80 60 0.0 1.0 0.00 0.00 0.00 79 1017.7
20240622014404 80 28 1.0 3.0 0.00 0.00 0.00 78 1017.7
20240622013904 80 56 0.0 3.0 0.00 0.00 0.00 78 1017.7
20240622013405 80 59 1.0 7.0 0.00 0.00 0.00 78 1017.7
20240622012404 80 92 1.0 8.0 0.00 0.00 0.00 78 1017.6
20240622011908 80 84 1.0 6.0 0.00 0.00 0.00 79 1017.7
20240622011406 80 101 0.0 3.0 0.00 0.00 0.00 79 1017.5
20240622010905 80 29 1.0 8.0 0.00 0.00 0.00 80 1017.5
20240622010405 80 74 0.0 2.0 0.00 0.00 0.00 80 1017.3
20240622005906 80 103 0.0 2.0 0.00 0.00 0.00 80 1017.3
20240622005405 80 25 1.0 3.0 0.00 0.00 0.00 81 1017.2
20240622004905 80 48 0.0 2.0 0.00 0.00 0.00 81 1017.0
20240622004404 80 19 0.0 2.0 0.00 0.00 0.00 81 1016.9
20240622003405 80 50 1.0 10.0 0.00 0.00 0.00 81 1017.1
20240622002905 80 43 1.0 5.0 0.00 0.00 0.00 80 1017.1
20240622002405 80 13 0.0 6.0 0.00 0.00 0.00 80 1017.2
20240622001405 80 46 2.0 9.0 0.00 0.00 0.00 79 1017.2
20240622000904 80 36 1.0 9.0 0.00 0.00 0.00 79 1017.1
20240622000405 80 69 2.0 9.0 0.00 0.00 0.00 78 1017.2
20240621235906 81 15 1.0 9.0 0.00 0.00 0.00 77 1017.2
20240621234904 81 50 2.0 12.0 0.00 0.00 0.00 76 1017.3
20240621234403 82 51 2.0 10.0 0.00 0.00 0.00 75 1017.3
20240621233904 82 51 2.0 10.0 0.00 0.00 0.00 74 1017.4
20240621232905 83 10 3.0 12.0 0.00 0.00 0.00 73 1017.6
20240621231905 83 48 3.0 15.0 0.00 0.00 0.00 71 1017.7
20240621230404 85 28 4.0 15.0 0.00 0.00 0.00 67 1017.4
20240621225904 86 29 2.0 15.0 0.00 0.00 0.00 66 1017.3
20240621225404 87 43 3.0 14.0 0.00 0.00 0.00 63 1017.2
20240621224904 89 49 4.0 12.0 0.00 0.00 0.00 60 1017.0
20240621224403 92 39 2.0 9.0 0.00 0.00 0.00 56 1016.8
20240621223905 94 6 2.0 6.0 0.00 0.00 0.00 52 1016.6
20240621223404 95 325 2.0 10.0 0.00 0.00 0.00 46 1016.1
20240621222904 95 314 2.0 10.0 0.00 0.00 0.00 47 1016.0
20240621222404 95 278 2.0 8.0 0.00 0.00 0.00 47 1016.0
20240621221904 95 272 3.0 9.0 0.00 0.00 0.00 47 1015.9
20240621221404 95 237 5.0 10.0 0.00 0.00 0.00 47 1015.9
20240621220904 95 248 3.0 12.0 0.00 0.00 0.00 47 1016.0
20240621220403 94 220 2.0 7.0 0.00 0.00 0.00 48 1016.0